Location: Albert
(44.3172°N, 77.1347°W)
Time: 06:24:01
(UTC+00:00)

X-37B - Visible Passes

Search period start: 21 October 2021 00:00
Search period end: 31 October 2021 00:00
Orbit: 385 x 389 km, 45.0° (Epoch: 17 October)

Date Brightness Start Highest point End Pass type
(mag) Time Alt. Az. Time Alt. Az. Time Alt. Az.
21 Oct 3.1 00:37:21 10° W 00:38:40 22° W 00:38:40 22° W visible
21 Oct 0.5 23:38:58 10° W 23:42:09 84° N 23:42:53 50° E visible
22 Oct 0.6 22:40:35 10° W 22:43:46 76° N 22:46:56 10° E visible
23 Oct 2.1 00:17:16 10° W 00:19:24 36° WSW 00:19:24 36° WSW visible
23 Oct 0.6 23:18:52 10° W 23:22:03 78° SSW 23:23:42 26° ESE visible
24 Oct 4.1 00:55:52 10° W 00:55:59 11° W 00:55:59 11° W visible
24 Oct 1.8 23:57:14 10° W 00:00:11 35° SSW 00:00:21 34° SSW visible
25 Oct 1.2 22:58:47 10° W 23:01:55 54° SSW 23:04:49 11° ESE visible
26 Oct 3.7 00:36:30 10° WSW 00:37:07 12° SW 00:37:07 12° SW visible
26 Oct 2.8 23:37:24 10° W 23:39:55 22° SSW 23:41:44 14° SSE visible
27 Oct 2.1 22:38:46 10° W 22:41:42 34° SSW 22:44:37 10° SE visible
28 Oct 3.6 23:18:02 10° WSW 23:19:35 13° SW 23:21:06 10° S visible
